Mattoon, IL

1:02 PM CST on November 14, 2019 (GMT -0600)
Coles County Memorial

Weather History for KMTO - September, 2019

Change the Weather History Date:

Tuesday, September 10, 2019

  Actual Average Record
Temperature  
Mean Temperature 79 °F 69 °F  
Max Temperature 89 °F 81 °F 96 °F (1983)
Min Temperature 68 °F 58 °F 43 °F (1969)
Degree Days  
Heating Degree Days 0 1  
Month to date heating degree days 0 4  
Since 1 July heating degree days 0 9  
Cooling Degree Days 14 5  
Month to date cooling degree days 56 60  
Year to date cooling degree days 1041 980  
Growing Degree Days 28 (Base 50)    
Moisture  
Dew Point 69 °F    
Average Humidity 71    
Maximum Humidity 87    
Minimum Humidity 55    
Precipitation  
Precipitation 0.00 in 0.10 in 3.95 in (2000)
Month to date precipitation 0.47 1.14  
Year to date precipitation 25.60 27.04  
Sea Level Pressure  
Sea Level Pressure 30.10 in    
Wind  
Wind Speed 6 mph (South)    
Max Wind Speed 13 mph    
Max Gust Speed 20 mph    
Visibility 10 miles    
Events      
T = Trace of Precipitation, MM = Missing Value Source: NWS Daily Summary

Daily Weather History Graph

Daily Weather History Graph

Search for Another Location

Airport or City:

Astronomy

Sep. 10, 2019 Rise Set
Actual Time 6:29 AM CDT 7:10 PM CDT
Civil Twilight 6:02 AM CDT 7:37 PM CDT
Nautical Twilight 5:30 AM CDT 8:09 PM CDT
Astronomical Twilight 4:57 AM CDT 8:42 PM CDT
Moon 5:45 PM CDT (9/10) 2:56 AM CDT (9/10)
Length of Visible Light 13h 34m
Length of Day
12h 40m
Waxing Gibbous, 89% of the Moon is Illuminated
Sep 10
Waxing Gibbous
Sep 13
Full
Sep 21
Last Quarter
Sep 28
New
Oct 5
First Quarter

Hourly Weather History & Observations

Time (CDT) Temp. Heat Index Dew Point Humidity Pressure Visibility Wind Dir Wind Speed Gust Speed Precip Events Conditions
12:53 AM 72.0 °F - 66.0 °F 81% 30.10 in 10.0 mi SSE 6.9 mph - N/A   Clear
1:53 AM 70.0 °F - 64.9 °F 84% 30.09 in 10.0 mi SSE 5.8 mph - N/A   Clear
2:53 AM 71.1 °F - 64.9 °F 81% 30.09 in 10.0 mi SSE 6.9 mph - N/A   Clear
3:53 AM 70.0 °F - 64.9 °F 84% 30.09 in 10.0 mi SSE 4.6 mph - N/A   Clear
4:53 AM 70.0 °F - 64.0 °F 81% 30.10 in 10.0 mi South 5.8 mph - N/A   Clear
5:53 AM 68.0 °F - 64.0 °F 87% 30.10 in 10.0 mi SSE 5.8 mph - N/A   Clear
6:53 AM 68.0 °F - 64.0 °F 87% 30.12 in 10.0 mi SSE 6.9 mph - N/A   Clear
7:53 AM 71.1 °F - 64.9 °F 81% 30.12 in 10.0 mi SSE 9.2 mph - N/A   Clear
8:53 AM 75.0 °F - 66.0 °F 73% 30.13 in 10.0 mi South 10.4 mph - N/A   Clear
9:53 AM 79.0 °F - 68.0 °F 69% 30.14 in 10.0 mi South 12.7 mph - N/A   Clear
10:53 AM 82.9 °F 87.0 °F 70.0 °F 65% 30.14 in 10.0 mi SW 5.8 mph - N/A   Clear
11:53 AM 84.9 °F 90.1 °F 71.1 °F 63% 30.13 in 10.0 mi SSW 9.2 mph - N/A   Clear
12:53 PM 87.1 °F 93.6 °F 72.0 °F 61% 30.12 in 10.0 mi South 8.1 mph - N/A   Clear
1:53 PM 89.1 °F 96.0 °F 72.0 °F 57% 30.11 in 10.0 mi SSW 8.1 mph - N/A   Clear
2:53 PM 88.0 °F 92.9 °F 70.0 °F 55% 30.10 in 10.0 mi Variable 5.8 mph - N/A   Clear
3:53 PM 88.0 °F 93.8 °F 71.1 °F 57% 30.09 in 10.0 mi SSW 4.6 mph - N/A   Clear
4:53 PM 87.1 °F 92.8 °F 71.1 °F 59% 30.09 in 10.0 mi SW 5.8 mph - N/A   Clear
5:53 PM 86.0 °F 93.0 °F 73.0 °F 65% 30.07 in 10.0 mi South 5.8 mph - N/A   Clear
6:53 PM 82.0 °F 87.9 °F 73.9 °F 76% 30.07 in 10.0 mi South 3.5 mph - N/A   Clear
7:53 PM 78.1 °F - 73.9 °F 87% 30.07 in 10.0 mi SSE 4.6 mph - N/A   Clear
8:53 PM 75.9 °F - 72.0 °F 87% 30.09 in 10.0 mi South 3.5 mph - N/A   Clear
9:53 PM 78.1 °F - 70.0 °F 76% 30.11 in 10.0 mi SSW 3.5 mph - N/A   Clear
10:53 PM 77.0 °F - 69.1 °F 76% 30.11 in 10.0 mi SSW 3.5 mph - N/A   Clear
11:53 PM 75.9 °F - 68.0 °F 76% 30.12 in 10.0 mi South 5.8 mph - N/A   Clear